This demonstration page uses our WeatherBlox Daily Observations layout. Learn more.

Hourly Observations for June 5, 2016

Temp ( °F °C ) Dew Point ( °F °C ) Humidity (%) Winds ( mph kmh ) Pressure ( in mb ) Visibility ( mi km ) Precip ( " mm )
12:15 am 00:15 Clear 59 15 47 8.2 64 64 NNW 5 7 30.06 1018 10 16.09344 0 0
12:35 am 00:35 Clear 59 14.9 47 8.2 64 64 NW 5 7 30.06 1018 10 16.09344 0 0
12:55 am 00:55 Clear 58 14.5 47 8.2 66 66 NW 3 6 30.06 1018 10 16.09344 0 0
1:15 am 01:15 Clear 57 13.7 47 8.3 70 70 NNW 5 7 30.03 1017 10 16.09344 0 0
1:35 am 01:35 Clear 58 14.3 47 8.2 67 67 NW 3 6 30.03 1017 10 16.09344 0 0
1:55 am 01:55 Clear 56 13.6 47 8.3 71 71 Calm 30.03 1017 10 16.09344 0 0
2:15 am 02:15 Clear 56 13.5 47 8.3 71 71 WNW 3 6 30.06 1018 10 16.09344 0 0
2:35 am 02:35 Clear 56 13.6 47 8.1 70 70 WNW 5 7 30.06 1018 10 16.09344 0 0
2:55 am 02:55 Clear 57 13.7 47 8.1 69 69 WNW 5 7 30.06 1018 10 16.09344 0 0
3:15 am 03:15 Clear 55 13 47 8.1 72 72 WNW 6 9 30.09 1019 10 16.09344 0 0
3:35 am 03:35 Clear 55 12.8 46 8 73 73 WNW 5 7 30.09 1019 10 16.09344 0 0
3:55 am 03:55 Clear 55 12.9 47 8.1 73 73 WNW 6 9 30.09 1019 10 16.09344 0 0
4:15 am 04:15 Clear 55 13 46 8 72 72 WNW 7 11 30.09 1019 10 16.09344 0 0
4:35 am 04:35 Clear 54 12 46 8 77 77 NW 5 7 30.06 1018 10 16.09344 0 0
4:55 am 04:55 Clear 53 11.7 46 7.8 77 77 Calm 30.09 1019 10 16.09344 0 0
5:15 am 05:15 Clear 53 11.7 46 7.8 77 77 NW 3 6 30.06 1018 10 16.09344 0 0
5:35 am 05:35 Clear 53 11.8 46 7.6 76 76 WNW 8 13 30.06 1018 10 16.09344 0 0
5:55 am 05:55 Clear 53 11.6 46 7.5 76 76 WNW 6 9 30.09 1019 10 16.09344 0 0
6:15 am 06:15 Sunny 53 11.6 46 7.5 76 76 WNW 6 9 30.09 1019 10 16.09344 0 0
6:35 am 06:35 Sunny 53 11.8 46 7.6 76 76 W 6 9 30.09 1019 10 16.09344 0 0
6:55 am 06:55 Sunny 55 12.5 46 7.6 72 72 WNW 7 11 30.09 1019 10 16.09344 0 0
7:15 am 07:15 Sunny 55 12.8 46 8 73 73 WNW 6 9 30.09 1019 10 16.09344 0 0
7:35 am 07:35 Sunny 57 14.1 47 8.5 69 69 WNW 7 11 30.06 1018 10 16.09344 0 0
7:55 am 07:55 Sunny 59 15.2 48 8.8 66 66 WNW 6 9 30.06 1018 10 16.09344 0 0
8:15 am 08:15 Sunny 62 16.8 48 9.1 61 61 NW 5 7 30.06 1018 10 16.09344 0 0
8:35 am 08:35 Sunny 65 18.2 49 9.2 56 56 NW 6 9 30.03 1017 10 16.09344 0 0
8:55 am 08:55 Sunny 67 19.5 49 9.2 52 52 NW 5 7 30.03 1017 10 16.09344 0 0
9:15 am 09:15 Sunny 69 20.3 49 9.5 50 50 NW 6 9 30.03 1017 10 16.09344 0 0
9:35 am 09:35 Sunny 70 21.3 49 9.2 46 46 WNW 6 9 30 1016 10 16.09344 0 0
9:55 am 09:55 Sunny 72 22 47 8.3 42 42 W 8 13 30 1016 10 16.09344 0 0
10:15 am 10:15 Sunny 73 22.6 43 6 34 34 NW 5 7 30 1016 10 16.09344 0 0
10:35 am 10:35 Sunny 73 22.8 41 4.9 31 31 N 5 7 30 1016 10 16.09344 0 0
10:55 am 10:55 Sunny 73 23 41 5 31 31 W 5 7 30 1016 10 16.09344 0 0
11:15 am 11:15 Sunny 74 23.4 41 5.1 31 31 NNW 7 11 30 1016 10 16.09344 0 0
11:35 am 11:35 Sunny 74 23.6 41 4.8 30 30 Calm 30 1016 10 16.09344 0 0
11:55 am 11:55 Sunny 75 24.1 42 5.7 31 31 WSW 5 7 29.94 1014 10 16.09344 0 0
12:15 pm 12:15 Sunny 76 24.4 42 5.8 30 30 W 5 7 29.94 1014 10 16.09344 0 0
12:35 pm 12:35 Sunny 76 24.7 42 5.7 29 29 WNW 3 6 29.94 1014 10 16.09344 0 0
12:55 pm 12:55 Sunny 77 25.1 43 6.2 30 30 W 8 13 29.94 1014 10 16.09344 0 0
1:15 pm 13:15 Sunny 77 25 41 4.9 27 27 W 6 9 29.94 1014 10 16.09344 0 0
1:35 pm 13:35 Sunny 78 25.5 40 4.4 26 26 WNW 6 9 29.94 1014 10 16.09344 0 0
1:55 pm 13:55 Sunny 79 25.9 41 5 26 26 Calm 29.91 1013 10 16.09344 0 0
2:15 pm 14:15 Sunny 79 26.1 41 5.2 26 26 WNW 7 11 29.91 1013 10 16.09344 0 0
2:35 pm 14:35 Sunny 79 26 42 5.8 27 27 Calm 29.91 1013 10 16.09344 0 0
2:55 pm 14:55 Sunny 79 26.3 42 5.4 26 26 SW 5 7 29.91 1013 10 16.09344 0 0
3:15 pm 15:15 Sunny 80 26.7 42 5.5 26 26 W 5 7 29.88 1012 10 16.09344 0 0
3:35 pm 15:35 Sunny 80 26.8 39 3.9 23 23 Calm 29.85 1011 10 16.09344 0 0
3:55 pm 15:55 Sunny 81 27.2 40 4.7 24 24 N 3 6 29.85 1011 10 16.09344 0 0
4:15 pm 16:15 Sunny 81 27.4 42 5.7 25 25 WNW 7 11 29.85 1011 10 16.09344 0 0
4:35 pm 16:35 Sunny 82 27.6 38 3.5 21 21 NW 7 11 29.85 1011 10 16.09344 0 0
4:55 pm 16:55 Sunny 82 27.6 39 4.1 22 22 NW 7 11 29.85 1011 10 16.09344 0 0
5:35 pm 17:35 Sunny 82 27.7 38 3.6 21 21 NW 5 7 29.83 1010 10 16.09344 0 0
5:55 pm 17:55 Sunny 82 27.7 39 4.1 22 22 N 3 6 29.83 1010 10 16.09344 0 0
6:15 pm 18:15 Sunny 82 27.8 39 3.8 21 21 N 10 17 29.83 1010 10 16.09344 0 0
6:35 pm 18:35 Sunny 82 27.5 40 4.2 22 22 NNE 6 9 29.83 1010 10 16.09344 0 0
6:55 pm 18:55 Sunny 81 27.3 39 3.8 22 22 Calm 29.83 1010 10 16.09344 0 0
7:15 pm 19:15 Sunny 82 27.5 40 4.3 23 23 N 5 7 29.83 1010 10 16.09344 0 0
7:35 pm 19:35 Sunny 80 26.8 42 5.6 26 26 NNE 6 9 29.8 1009 10 16.09344 0 0
7:55 pm 19:55 Sunny 80 26.4 42 5.4 26 26 NNE 3 6 29.8 1009 10 16.09344 0 0
8:15 pm 20:15 Hazy 79 25.9 44 6.9 30 30 Calm 29.83 1010 5 8.04672 0 0
8:35 pm 20:35 Sunny 79 25.9 43 6.2 28 28 Calm 29.85 1011 10 16.09344 0 0
8:55 pm 20:55 Sunny 78 25.4 42 5.7 28 28 Calm 29.83 1010 10 16.09344 0 0
9:15 pm 21:15 Clear 76 24.7 43 6 30 30 S 3 6 29.85 1011 10 16.09344 0 0
9:35 pm 21:35 Clear 72 22.2 46 8 40 40 Calm 29.88 1012 10 16.09344 0 0
9:55 pm 21:55 Clear 70 21.2 46 8 43 43 SE 3 6 29.88 1012 10 16.09344 0 0
10:15 pm 22:15 Clear 69 20.7 46 8 44 44 Calm 29.88 1012 10 16.09344 0 0
10:35 pm 22:35 Clear 67 19.7 47 8.2 48 48 SE 3 6 29.88 1012 10 16.09344 0 0
10:55 pm 22:55 Clear 67 19.6 46 7.9 47 47 ESE 3 6 29.88 1012 10 16.09344 0 0
11:15 pm 23:15 Clear 68 19.8 46 7.7 46 46 S 3 6 29.88 1012 10 16.09344 0 0
11:35 pm 23:35 Clear 67 19.5 47 8.3 49 49 SW 5 7 29.91 1013 10 16.09344 0 0
11:55 pm 23:55 Clear 65 18.1 47 8.6 54 54 SW 5 7 29.94 1014 10 16.09344 0 0

Powered by AerisWeather